Location: Tamazert
(32.6352°N, 5.2072°W)
Time: 15:59:28
(UTC+00:00)

Transit 2A Rocket - Pass Details

Date: 04 October 2022
Orbit: 589 x 912 km, 66.7° (Epoch: 07 December)

Event Time Altitude Azimuth Distance (km) Brightness Sun altitude
Rises 06:21:02 0° 243° (WSW) 2,846 7.4 0.0°
Reaches altitude 10° 06:23:57 10° 263° (W) 1,923 6.5 0.7°
Maximum altitude 06:26:48 17° 305° (NW) 1,505 6.1 1.2°
Drops below altitude 10° 06:29:39 10° 347° (NNW) 1,919 6.9 1.8°
Sets 06:32:34 0° 8° (N) 2,838 8.0 2.5°
